Погода в Большой Куликовке

Россия / Орловская область     52°55′06″N   36°13′06″E
темп.,
°C
ветер,
м/с
пор.,
м/с
влажн.,
%
обл.,
%
осадки,
мм/ч
давл.,
гПа
погр.,
м
18 апреля, вс
вс1800:00+4юз2592100 0.0 1018212
03:00+4зсз1291100 0.0 101848
06:00+4св239481 0.0 101871
09:00+6св3482100 0.0 1018444
12:00+7в447999 0.2 1019730
15:00+9в336834 0.3 1018835
18:00+10в125998 0.1 10181085
21:00+6ссв5989100 0.3 1019251
19 апреля, пн
пн1900:00+6св3592100 0.1 1018119
03:00+5св36906 0.1 1018103
06:00+4ссв499699 0.0 1018211
09:00+8св568583 0.0 1019535
12:00+10св5673100 0.4 1018977
15:00+8св688284 1.2 1019710
18:00+6св7991100 0.0 1019583
21:00+4св5996100 0.1 1020442
20 апреля, вт
вт2000:00+4св5893100 0.0 1019467
03:00+5всв51095100 0.0 1017464
06:00+5всв51096100 0.0 1016470
09:00+6всв5987100 0.0 1016454
12:00+8всв7987100 0.2 1014719
15:00+10всв81078100 0.3 1011986
18:00+6св81391100 1.2 1008815
21:00+2св81597100 7.9 1005651
21 апреля, ср
ср2100:00+1с81499100 7.4 999421
03:00+1зсз46100100 11.1 997254
06:00+1з61198100 0.6 1000456
09:00+1з81295100 0.7 1003688
12:00+4зюз71291100 0.0 1007990
15:00+6зюз61185100 0.1 10091180
18:00+7юз61179100 0.1 1011795
21:00+4ююз4118745 0.1 1014255
22 апреля, чт
чт2200:00+3ююз412885 0.0 1016236
03:00+3ююз4128862 0.0 1016233
06:00+3ю4119025 0.0 1017226
09:00+7ююз6979100 0.0 1018434
12:00+10ююз697183 0.1 1018996
15:00+11ю787170 0.5 10181022
18:00+11ююв59758 0.1 1018617
21:00+8ю5108796 0.2 1018217